Terminal Aerodrome Forecast
Issued by NWS New Orleans/Baton Rouge, LA

Home | Current Version | Previous Version | Text Only | Print | Product List | Glossary On
Versions: 1 2 3 4 5 6 7 8 9 10 11 12 13 14 15 16 17 18 19 20 21 22 23 24 25 26 27 28 29 30 31 32 33 34 35 36 37 38 39 40 41 42 43 44 45 46 47 48 49 50
000
FTUS44 KLIX 040300 AAA
TAFNEW
TAF AMD
KNEW 040314Z 0403/0424 14007KT P6SM BKN030
     FM040600 16008KT 4SM BR BKN004
     FM040800 16006KT 1SM BR BKN003
     FM041600 17009KT P6SM BKN008=

USA.gov is the U.S. government's official web portal to all federal, state and local government web resources and services.